This is the latest recevied weather packets stored in our database for station/object N2PUI. If no packets are shown the sender has not sent any weather packets the latest 10 day(s).
| Time | Temp. | Humidity | Pressure | Rain* | Wind** | Luminosity | Snow |
|---|---|---|---|---|---|---|---|
| 1777663936 | 11.11° C | 53% | 1011.7 hPa | 0 mm | - | 301 W/m² | - |
| 1777663633 | 11.11° C | 53% | 1011.9 hPa | 0 mm | - | 430 W/m² | - |
| 1777663330 | 11.67° C | 54% | 1011.8 hPa | 0 mm | - | 411 W/m² | - |
| 1777662725 | 11.67° C | 52% | 1012.1 hPa | 0 mm | - | 429 W/m² | - |
| 1777662421 | 11.67° C | 53% | 1012.2 hPa | 0 mm | - | 420 W/m² | - |
| 1777662116 | 11.67° C | 51% | 1012.1 hPa | 0 mm | - | 332 W/m² | - |
| 1777660596 | 12.22° C | 49% | 1012 hPa | 0 mm | - | 327 W/m² | - |
| 1777660293 | 12.78° C | 46% | 1011.9 hPa | 0 mm | - | 338 W/m² | - |
| 1777659989 | 13.33° C | 45% | 1011.9 hPa | 0 mm | - | 331 W/m² | - |
| 1777659686 | 12.22° C | 47% | 1012 hPa | 0 mm | - | 512 W/m² | - |
| 1777659384 | 12.78° C | 47% | 1012 hPa | 0 mm | - | 565 W/m² | - |
| 1777659080 | 12.22° C | 49% | 1011.9 hPa | 0 mm | - | 308 W/m² | - |
| 1777658778 | 12.22° C | 51% | 1012.2 hPa | 0 mm | - | 223 W/m² | - |
| 1777658474 | 12.22° C | 48% | 1011.9 hPa | 0 mm | - | 266 W/m² | - |
| 1777656959 | 12.78° C | 51% | 1012 hPa | 0 mm | - | 425 W/m² | - |
| 1777656656 | 12.78° C | 48% | 1011.9 hPa | 0 mm | - | 329 W/m² | - |
| 1777656047 | 12.22° C | 47% | 1012.2 hPa | 0 mm | - | 482 W/m² | - |
| 1777655744 | 11.67° C | 47% | 1012.4 hPa | 0 mm | - | 574 W/m² | - |
| 1777655441 | 11.67° C | 47% | 1012.3 hPa | 0 mm | - | 817 W/m² | - |
| 1777654835 | 11.67° C | 49% | 1012.4 hPa | 0 mm | - | 287 W/m² | - |
| 1777654532 | 11.67° C | 49% | 1012.4 hPa | 0 mm | - | 247 W/m² | - |
| 1777653927 | 11.67° C | 47% | 1012.5 hPa | 0 mm | - | 476 W/m² | - |
| 1777652713 | 11.11° C | 51% | 1012.7 hPa | 0 mm | - | 292 W/m² | - |
| 1777652108 | 11.11° C | 52% | 1012.8 hPa | 0 mm | - | 272 W/m² | - |
| 1777650895 | 10.56° C | 53% | 1012.8 hPa | 0 mm | - | 246 W/m² | - |
* Rain latest hour (hover to see other rain measurements)
** Current wind speed in m/s (hover to see current wind gust speed)